User: anonymous   Login
Location: Olsztyn
(53.7767°N, 20.4765°E)
Time: 09:43:17
(UTC+02:00)
Language:

Explorer 7 - Orbit

View from above orbital plane
View from above orbital plane
View from above satellite
View from above satellite

Ground track
Ground track

The orbit data is extracted from the following two-line orbital elements,

1 00022U 59009A   24196.68768262  .00012494  00000-0  71126-3 0  9994
2 00022  50.2782 281.4344 0111354 216.6562 142.6736 15.07995331693559
Epoch (UTC): 14 July 2024 16:30:15
Eccentricity: 0.0111354
inclination: 50.2782°
perigee height: 465 km
apogee height: 619 km
right ascension of ascending node: 281.4344°
argument of perigee: 216.6562°
revolutions per day: 15.07995331
mean anomaly at epoch: 142.6736°
orbit number at epoch: 69355

The dashed part of the orbit path shows where the satellite is in the earth's shadow,  

DLR